Tracking 28091 objects as of 30-Sep-2023
HD Live streaming from Space Station
objects crossing your sky now

STARLINK-2690

Track STARLINK-2690 now!
10-day predictions
STARLINK-2690 is classified as:


NORAD ID: 48480
Int'l Code: 2021-040BE
Perigee: 553.5 km
Apogee: 555.2 km
Inclination: 53.1 °
Period: 95.6 minutes
Semi major axis: 6925 km
RCS: Unknown
Launch date: May 9, 2021
Source: United States (US)
Launch site: AIR FORCE EASTERN TEST RANGE (AFETR)
Your satellite tracking list
Your tracking list is empty




NASA's NSSDC Master Catalog

Two Line Element Set (TLE):
1 48480U 21040BE  23272.31646023  .00014491  00000-0  99010-3 0  9993
2 48480  53.0528 247.6296 0001226  92.3022 267.8107 15.06385026131848
Source of the keplerian elements: AFSPC